Stations météo

réclame
Mon MeteoGroup
UFS TW Ems, Allemagne (10004): Température de l'air & dewpoint: 16.10.2017 10:00:00 - 22.10.2017 10:00:00 (CEST)UFS TW Ems, Allemagne (10004): Vitesse du vent & gusts: 16.10.2017 10:00:00 - 22.10.2017 10:00:00 (CEST)UFS TW Ems, Allemagne (10004): reduced air pressure: 16.10.2017 10:00:00 - 22.10.2017 10:00:00 (CEST)UFS TW Ems, Allemagne (10004): visibility: 16.10.2017 10:00:00 - 22.10.2017 10:00:00 (CEST)UFS TW Ems, Allemagne (10004): Ensoleillement: 16.10.2017 10:00:00 - 22.10.2017 10:00:00 (CEST)
Date & Time tt [°C] td [°C] ff [km/h] ff [knt] fx [km/h] fx [knt] ppp [hPa] vv [km] sd [min]
22.10.2017 10:00:00 - - - - - - - - -
22.10.2017 09:00:00 12,2 11,1 43 23 - - 1002,8 10 0
22.10.2017 08:00:00 11,9 10,8 50 27 - - 1002,4 9 0
22.10.2017 07:00:00 11,7 10,3 58 31 76 41 1002,1 5 0
22.10.2017 06:00:00 11,9 9,8 61 33 72 39 1002,4 10 0
22.10.2017 05:00:00 12,3 9,2 58 31 - - 1002,5 10 0
22.10.2017 04:00:00 12,7 9,3 54 29 72 39 1002,7 10 0
22.10.2017 03:00:00 13,1 10,0 54 29 68 37 1003,3 10 0
22.10.2017 02:00:00 - - - - - - - - -
22.10.2017 01:00:00 13,7 9,9 54 29 65 35 1004,6 10 0
22.10.2017 00:00:00 13,7 10,4 50 27 61 33 1005,2 10 0
21.10.2017 23:00:00 14,0 10,4 50 27 - - 1005,3 10 0
21.10.2017 22:00:00 14,0 10,3 47 25 61 33 1005,7 10 0
21.10.2017 21:00:00 14,5 10,2 50 27 61 33 1005,7 10 0
21.10.2017 20:00:00 14,5 11,3 40 21 - - 1006,3 10 0
21.10.2017 19:00:00 15,2 11,5 40 21 58 31 1006,2 10 0
21.10.2017 18:00:00 15,2 11,8 40 21 54 29 1006,2 10 30
21.10.2017 17:00:00 14,8 13,1 32 18 - - 1006,1 10 42
21.10.2017 16:00:00 14,4 12,6 32 18 47 25 1006,1 10 24
21.10.2017 15:00:00 14,3 10,2 40 21 54 29 1005,6 10 0
21.10.2017 14:00:00 13,0 12,3 43 23 - - 1006,0 10 0
21.10.2017 13:00:00 12,5 12,1 47 25 58 31 1006,7 2,2 0
21.10.2017 12:00:00 12,8 11,1 47 25 58 31 1006,9 8 0
21.10.2017 11:00:00 - - - - - - - - -
21.10.2017 10:00:00 13,1 10,9 36 19 - - 1007,5 9 0
21.10.2017 09:00:00 13,1 10,9 32 18 - - 1007,7 10 0
21.10.2017 08:00:00 13,0 11,2 32 18 - - 1008,2 10 0
21.10.2017 07:00:00 13,5 11,5 36 19 - - 1008,2 10 0
21.10.2017 06:00:00 14,3 10,1 29 16 40 21 1008,1 10 0
21.10.2017 05:00:00 14,4 11,6 29 16 - - 1008,2 10 0
21.10.2017 04:00:00 14,0 12,4 25 14 - - 1008,2 10 0
21.10.2017 03:00:00 14,6 11,5 18 10 - - 1008,1 10 0
21.10.2017 02:00:00 - - - - - - - - -
21.10.2017 01:00:00 - - - - - - - - -
21.10.2017 00:00:00 - - - - - - - - -
20.10.2017 23:00:00 - - - - - - - - -
20.10.2017 22:00:00 - - - - - - - - -
20.10.2017 21:00:00 - - - - - - - - -
20.10.2017 20:00:00 - - - - - - - - -
20.10.2017 19:00:00 13,8 12,8 43 23 61 33 1004,5 10 0
20.10.2017 18:00:00 13,8 12,0 47 25 58 31 1004,5 10 0
20.10.2017 17:00:00 14,2 11,8 43 23 - - 1004,4 10 18
20.10.2017 16:00:00 13,8 11,3 40 21 65 35 1004,4 8 6
20.10.2017 15:00:00 14,9 12,0 32 18 47 25 1004,6 10 36
20.10.2017 14:00:00 14,6 12,3 36 19 - - 1004,6 10 60
20.10.2017 13:00:00 13,8 11,8 29 16 - - 1004,9 10 0
20.10.2017 12:00:00 - - - - - - - - -
20.10.2017 11:00:00 15,4 13,9 43 23 - - 1004,4 10 0
20.10.2017 10:00:00 15,4 13,6 40 21 47 25 1004,5 10 0
20.10.2017 09:00:00 - - 32 18 - - 1004,3 10 0
20.10.2017 08:00:00 15,7 13,8 32 18 - - 1004,4 10 0
20.10.2017 07:00:00 - - - - - - - - -
20.10.2017 06:00:00 15,9 13,7 36 19 - - 1005,0 10 -
20.10.2017 05:00:00 15,9 13,8 29 16 - - 1005,3 10 0
20.10.2017 04:00:00 15,9 14,0 32 18 - - 1005,9 10 0
20.10.2017 03:00:00 15,8 13,9 32 18 - - 1006,2 9 0
20.10.2017 02:00:00 15,9 13,9 29 16 - - 1006,2 10 0
20.10.2017 01:00:00 16,0 13,8 29 16 - - 1006,6 9 0
20.10.2017 00:00:00 15,5 14,0 32 18 - - 1006,8 6 0
19.10.2017 23:00:00 - - - - - - - - -
19.10.2017 22:00:00 - - 36 19 - - 1008,1 6 0
19.10.2017 21:00:00 15,5 14,2 29 16 - - 1008,4 5 0
19.10.2017 20:00:00 15,4 14,3 29 16 - - 1009,0 4,7 0
19.10.2017 19:00:00 - - - - - - - - -
19.10.2017 18:00:00 15,0 14,3 29 16 - - 1008,6 3,6 24
19.10.2017 17:00:00 15,0 14,2 25 14 - - 1009,3 3,7 18
19.10.2017 16:00:00 14,6 14,0 25 14 - - 1009,9 3,3 0
19.10.2017 15:00:00 14,1 13,6 18 10 - - 1010,3 2,9 -
19.10.2017 14:00:00 14,1 13,6 18 10 - - 1011,0 3,3 0
19.10.2017 13:00:00 13,6 13,3 14 8 - - 1011,4 3,1 0
19.10.2017 12:00:00 13,4 13,1 22 12 - - 1011,1 1,8 0
19.10.2017 11:00:00 13,4 13,0 25 14 - - 1011,0 0,9 0
19.10.2017 10:00:00 13,9 13,2 25 14 - - 1011,0 3,1 0
19.10.2017 09:00:00 13,9 13,3 29 16 - - 1010,9 3,3 0
19.10.2017 08:00:00 13,9 13,2 25 14 - - 1011,1 3,5 0
19.10.2017 07:00:00 - - - - - - - - -
19.10.2017 06:00:00 14,1 13,0 25 14 - - 1011,4 5 0
19.10.2017 05:00:00 14,4 13,0 22 12 - - 1011,7 9 0
19.10.2017 04:00:00 14,5 12,8 25 14 - - 1012,1 10 0
19.10.2017 03:00:00 14,6 12,7 22 12 - - 1012,5 10 0
19.10.2017 02:00:00 14,5 12,4 25 14 - - 1012,5 10 0
19.10.2017 01:00:00 14,5 12,5 22 12 - - 1012,8 10 0
19.10.2017 00:00:00 14,3 11,9 22 12 - - 1013,0 10 0
18.10.2017 23:00:00 14,4 11,7 22 12 - - 1013,7 10 0
18.10.2017 22:00:00 14,4 11,7 25 14 - - 1013,6 10 0
18.10.2017 21:00:00 14,3 11,7 25 14 - - 1013,5 10 0
18.10.2017 20:00:00 - - - - - - - - -
18.10.2017 19:00:00 - - - - - - - - -
18.10.2017 18:00:00 - - - - - - - - -
18.10.2017 17:00:00 - - - - - - - - -
18.10.2017 16:00:00 - - - - - - - - -
18.10.2017 15:00:00 13,6 9,5 11 6 - - 1014,6 10 0
18.10.2017 14:00:00 - - - - - - - - -
18.10.2017 13:00:00 - - - - - - - - -
18.10.2017 12:00:00 13,8 10,6 7 4 - - 1015,0 10 0
18.10.2017 11:00:00 13,9 10,8 7 4 - - 1015,0 10 0
18.10.2017 10:00:00 13,9 10,6 7 4 - - 1014,8 10 0
18.10.2017 09:00:00 14,0 10,3 14 8 - - 1014,8 10 0
18.10.2017 08:00:00 14,0 9,9 14 8 - - 1014,6 10 0
18.10.2017 07:00:00 14,2 9,6 22 12 - - 1014,7 10 0
18.10.2017 06:00:00 - - - - - - - - -
18.10.2017 05:00:00 - - - - - - - - -
18.10.2017 04:00:00 - - - - - - - - -
18.10.2017 03:00:00 14,6 9,8 32 18 47 25 1015,2 10 0
18.10.2017 02:00:00 14,7 9,3 32 18 - - 1015,4 10 0
18.10.2017 01:00:00 14,6 10,5 32 18 - - 1015,5 10 0
18.10.2017 00:00:00 14,6 9,9 36 19 47 25 1015,4 10 0
17.10.2017 23:00:00 - - - - - - - - -
17.10.2017 22:00:00 14,6 10,4 40 21 58 31 1015,4 10 0
17.10.2017 21:00:00 - - - - - - - - -
17.10.2017 20:00:00 14,5 10,3 43 23 - - 1015,8 10 0
17.10.2017 19:00:00 14,6 10,4 47 25 61 33 1015,2 10 0
17.10.2017 18:00:00 14,4 10,0 50 27 65 35 1015,4 10 6
17.10.2017 17:00:00 14,5 10,1 50 27 - - 1015,5 10 48
17.10.2017 16:00:00 14,5 10,4 54 29 72 39 1016,0 10 54
17.10.2017 15:00:00 14,5 10,5 58 31 76 41 1015,6 10 60
17.10.2017 14:00:00 14,5 10,5 54 29 - - 1016,4 10 54
17.10.2017 13:00:00 14,6 10,3 54 29 68 37 1016,5 10 42
17.10.2017 12:00:00 14,6 10,3 47 25 68 37 1016,3 1,5 48
17.10.2017 11:00:00 14,6 10,0 54 29 - - 1016,3 0,4 54
17.10.2017 10:00:00 14,7 10,5 54 29 72 39 1016,4 4,7 24
17.10.2017 09:00:00 14,7 10,3 50 27 65 35 1016,3 10 0
17.10.2017 08:00:00 14,9 10,2 50 27 - - 1015,9 10 0
17.10.2017 07:00:00 14,9 10,4 50 27 65 35 1015,9 10 0
17.10.2017 06:00:00 15,3 11,2 54 29 68 37 1015,6 10 0
17.10.2017 05:00:00 15,2 11,7 50 27 - - 1016,0 10 0
17.10.2017 04:00:00 - - - - - - - - -
17.10.2017 03:00:00 16,5 12,5 47 25 58 31 1015,9 10 0
17.10.2017 02:00:00 16,6 14,0 40 21 - - 1015,8 10 0
17.10.2017 01:00:00 17,1 14,9 40 21 50 27 1015,9 10 0
17.10.2017 00:00:00 17,4 15,5 36 19 47 25 1015,8 10 0
16.10.2017 23:00:00 17,8 15,8 36 19 - - 1015,5 10 0
16.10.2017 22:00:00 17,3 15,9 36 19 - - 1015,6 8 0
16.10.2017 21:00:00 17,5 16,0 36 19 - - 1015,8 9 0
16.10.2017 20:00:00 17,6 16,1 36 19 - - 1015,9 9 0
16.10.2017 19:00:00 17,1 16,0 29 16 - - 1016,4 8 0
16.10.2017 18:00:00 16,6 15,6 25 14 - - 1016,8 9 12
16.10.2017 17:00:00 16,5 15,4 22 12 - - 1017,2 10 48
16.10.2017 16:00:00 16,2 15,2 25 14 - - 1017,8 9 60
16.10.2017 15:00:00 16,0 15,0 22 12 - - 1018,3 7 60
16.10.2017 14:00:00 15,9 14,8 22 12 - - 1018,7 6 60
16.10.2017 13:00:00 15,9 14,7 18 10 - - 1018,8 6 60
16.10.2017 12:00:00 15,5 14,5 22 12 - - 1018,8 6 60
16.10.2017 11:00:00 15,4 14,6 22 12 - - 1018,4 4,9 60
16.10.2017 10:00:00 15,3 14,7 22 12 - - 1018,1 - 36

tt = Température de l'air
td = dewpoint
ff = Vitesse du vent
fx = gusts
ppp = reduced air pressure
vv = visibility
sd = Ensoleillement

stations d'obs. à proximité